• In Uzbekistan
  • List of Countries
  • For 7 days
  • Water Temperature
  • Satellite Maps
  • Weather Map
  • Weather Widgets
  • user-avatar
    Login

    Hourly Weather Manika

    Today, 23 July, Monday

    Time Temperature Precipitation Wind Pressure Humidity
    00:00 +13°C° 0 mm 1 mps 686 mmHg 92%
    01:00 +12°C° 0 mm 1 mps 685 mmHg 93%
    02:00 +12°C° 0 mm 1 mps 685 mmHg 95%
    03:00 +12°C° 0 mm 1 mps 685 mmHg 95%
    04:00 +12°C° 0 mm 1 mps 685 mmHg 95%
    05:00 +11°C° 0 mm 1 mps 685 mmHg 96%
    06:00 +12°C° 0 mm 1 mps 686 mmHg 91%
    07:00 +13°C° 0 mm 1 mps 686 mmHg 86%
    08:00 +14°C° 0 mm 1 mps 687 mmHg 81%
    09:00 +16°C° 0 mm 2 mps 687 mmHg 68%
    10:00 +18°C° 0 mm 2 mps 688 mmHg 55%
    11:00 +20°C° 0 mm 3 mps 688 mmHg 42%
    12:00 +21°C° 0 mm 3 mps 688 mmHg 41%
    13:00 +22°C° 0 mm 3 mps 687 mmHg 39%
    14:00 +22°C° 0 mm 3 mps 687 mmHg 38%
    15:00 +22°C° 0 mm 3 mps 686 mmHg 42%
    16:00 +21°C° 0 mm 3 mps 686 mmHg 46%
    17:00 +20°C° 0 mm 3 mps 686 mmHg 50%
    18:00 +18°C° 0 mm 2 mps 686 mmHg 60%
    19:00 +16°C° 0 mm 2 mps 686 mmHg 69%
    20:00 +15°C° 0 mm 1 mps 685 mmHg 79%
    21:00 +14°C° 0 mm 1 mps 685 mmHg 83%
    22:00 +14°C° 0 mm 1 mps 686 mmHg 86%
    23:00 +13°C° 0 mm 1 mps 686 mmHg 90%

    Tomorrow, 24 July, Tuesday

    Time Temperature Precipitation Wind Pressure Humidity
    00:00 +13°C° 0 mm 1 mps 686 mmHg 91%
    01:00 +13°C° 0 mm 1 mps 685 mmHg 92%
    02:00 +13°C° 0 mm 1 mps 685 mmHg 93%
    03:00 +13°C° 0 mm 1 mps 685 mmHg 93%
    04:00 +13°C° 0 mm 1 mps 685 mmHg 93%
    05:00 +14°C° 0 mm 1 mps 685 mmHg 93%
    06:00 +14°C° 0 mm 1 mps 685 mmHg 90%
    07:00 +15°C° 0 mm 1 mps 686 mmHg 87%
    08:00 +15°C° 0 mm 1 mps 686 mmHg 84%
    09:00 +18°C° 0 mm 1 mps 686 mmHg 75%
    10:00 +19°C° 0 mm 1 mps 687 mmHg 66%
    11:00 +20°C° 0 mm 2 mps 687 mmHg 57%
    12:00 +21°C° 0 mm 2 mps 687 mmHg 52%
    13:00 +23°C° 0 mm 2 mps 686 mmHg 46%
    14:00 +24°C° 0 mm 2 mps 686 mmHg 41%
    15:00 +23°C° 0 mm 2 mps 685 mmHg 42%
    16:00 +21°C° 0 mm 2 mps 685 mmHg 43%
    17:00 +20°C° 0 mm 2 mps 685 mmHg 44%
    18:00 +20°C° 0 mm 1 mps 685 mmHg 51%
    19:00 +18°C° 0 mm 1 mps 685 mmHg 58%
    20:00 +15°C° 0 mm 1 mps 685 mmHg 65%
    21:00 +14°C° 0 mm 1 mps 685 mmHg 68%
    22:00 +13°C° 0 mm 1 mps 685 mmHg 71%
    23:00 +13°C° 0 mm 1 mps 685 mmHg 74%

    Day after tomorrow, 25 July, Wednesday

    Time Temperature Precipitation Wind Pressure Humidity
    00:00 +12°C° 0 mm 1 mps 684 mmHg 76%
    01:00 +12°C° 0 mm 1 mps 684 mmHg 78%
    02:00 +10°C° 0 mm 0 mps 683 mmHg 80%
    03:00 +10°C° 0 mm 0 mps 683 mmHg 81%
    04:00 +11°C° 0 mm 1 mps 683 mmHg 82%
    05:00 +10°C° 0 mm 1 mps 683 mmHg 83%
    06:00 +12°C° 0 mm 1 mps 683 mmHg 76%
    07:00 +13°C° 0 mm 1 mps 684 mmHg 69%
    08:00 +15°C° 0 mm 1 mps 685 mmHg 63%
    09:00 +18°C° 0 mm 1 mps 685 mmHg 53%
    10:00 +21°C° 0 mm 1 mps 686 mmHg 43%
    11:00 +23°C° 0 mm 2 mps 686 mmHg 33%
    12:00 +24°C° 0 mm 2 mps 686 mmHg 30%
    13:00 +25°C° 0 mm 2 mps 685 mmHg 28%
    14:00 +26°C° 0 mm 2 mps 684 mmHg 26%
    15:00 +25°C° 0 mm 2 mps 684 mmHg 29%
    16:00 +23°C° 0 mm 2 mps 684 mmHg 33%
    17:00 +21°C° 0 mm 2 mps 683 mmHg 36%
    18:00 +19°C° 0 mm 2 mps 683 mmHg 44%
    19:00 +18°C° 0 mm 1 mps 683 mmHg 53%
    20:00 +15°C° 0 mm 1 mps 683 mmHg 61%
    21:00 +15°C° 0 mm 1 mps 683 mmHg 65%
    22:00 +14°C° 0 mm 1 mps 683 mmHg 70%
    23:00 +13°C° 0 mm 1 mps 683 mmHg 74%

    26 July, Thursday

    Time Temperature Precipitation Wind Pressure Humidity
    00:00 +13°C° 0 mm 1 mps 683 mmHg 76%
    01:00 +12°C° 0 mm 1 mps 683 mmHg 79%
    02:00 +12°C° 0 mm 1 mps 682 mmHg 81%
    03:00 +12°C° 0 mm 1 mps 682 mmHg 82%
    04:00 +11°C° 0 mm 1 mps 682 mmHg 83%
    05:00 +11°C° 0 mm 1 mps 682 mmHg 84%
    06:00 +13°C° 0 mm 1 mps 683 mmHg 75%
    07:00 +14°C° 0 mm 1 mps 683 mmHg 67%
    08:00 +15°C° 0 mm 0 mps 684 mmHg 59%
    09:00 +20°C° 0 mm 1 mps 684 mmHg 48%
    10:00 +22°C° 0 mm 1 mps 685 mmHg 36%
    11:00 +25°C° 0 mm 1 mps 685 mmHg 25%
    12:00 +26°C° 0 mm 1 mps 685 mmHg 22%
    13:00 +26°C° 0 mm 2 mps 684 mmHg 20%
    14:00 +27°C° 0 mm 2 mps 683 mmHg 17%
    15:00 +26°C° 0 mm 2 mps 683 mmHg 20%
    16:00 +25°C° 0 mm 2 mps 683 mmHg 22%
    17:00 +23°C° 0 mm 2 mps 682 mmHg 25%
    18:00 +20°C° 0 mm 2 mps 683 mmHg 31%
    19:00 +19°C° 0 mm 1 mps 683 mmHg 38%
    20:00 +16°C° 0 mm 1 mps 683 mmHg 44%
    21:00 +15°C° 0 mm 1 mps 683 mmHg 48%
    22:00 +14°C° 0 mm 1 mps 683 mmHg 52%
    23:00 +14°C° 0 mm 1 mps 683 mmHg 55%

    27 July, Friday

    Time Temperature Precipitation Wind Pressure Humidity
    00:00 +13°C° 0 mm 1 mps 682 mmHg 58%
    01:00 +13°C° 0 mm 1 mps 682 mmHg 61%
    02:00 +12°C° 0 mm 1 mps 682 mmHg 63%
    03:00 +12°C° 0 mm 1 mps 682 mmHg 66%
    04:00 +12°C° 0 mm 1 mps 682 mmHg 68%
    05:00 +11°C° 0 mm 1 mps 681 mmHg 70%
    06:00 +13°C° 0 mm 1 mps 682 mmHg 65%
    07:00 +14°C° 0 mm 1 mps 683 mmHg 59%
    08:00 +16°C° 0 mm 1 mps 684 mmHg 53%
    09:00 +20°C° 0 mm 1 mps 684 mmHg 45%
    10:00 +23°C° 0 mm 1 mps 684 mmHg 36%
    11:00 +26°C° 0 mm 1 mps 685 mmHg 27%
    12:00 +26°C° 0 mm 1 mps 684 mmHg 26%
    13:00 +27°C° 0 mm 2 mps 683 mmHg 24%
    14:00 +28°C° 0 mm 2 mps 683 mmHg 23%
    15:00 +27°C° 0 mm 2 mps 682 mmHg 26%
    16:00 +25°C° 0 mm 2 mps 682 mmHg 30%
    17:00 +24°C° 0 mm 2 mps 682 mmHg 34%
    18:00 +21°C° 0 mm 2 mps 682 mmHg 42%
    19:00 +20°C° 0 mm 1 mps 682 mmHg 50%
    20:00 +18°C° 0 mm 1 mps 682 mmHg 58%
    21:00 +16°C° 0 mm 1 mps 682 mmHg 62%
    22:00 +16°C° 0 mm 1 mps 682 mmHg 65%
    23:00 +15°C° 0 mm 1 mps 682 mmHg 69%

    28 July, Saturday

    Time Temperature Precipitation Wind Pressure Humidity
    00:00 +15°C° 0 mm 1 mps 681 mmHg 71%
    01:00 +14°C° 0 mm 1 mps 681 mmHg 74%
    02:00 +14°C° 0 mm 1 mps 681 mmHg 76%
    03:00 +14°C° 0 mm 1 mps 681 mmHg 78%
    04:00 +13°C° 0 mm 1 mps 681 mmHg 79%
    05:00 +13°C° 0 mm 1 mps 681 mmHg 80%
    06:00 +15°C° 0 mm 1 mps 681 mmHg 73%
    07:00 +16°C° 0 mm 1 mps 682 mmHg 65%
    08:00 +17°C° 0 mm 0 mps 683 mmHg 57%
    09:00 +22°C° 0 mm 1 mps 683 mmHg 48%
    10:00 +25°C° 0 mm 1 mps 684 mmHg 39%
    11:00 +28°C° 0 mm 1 mps 684 mmHg 29%
    12:00 +28°C° 0 mm 1 mps 683 mmHg 27%
    13:00 +29°C° 0 mm 1 mps 683 mmHg 25%
    14:00 +29°C° 0 mm 2 mps 682 mmHg 23%
    15:00 +28°C° 0 mm 2 mps 682 mmHg 26%
    16:00 +27°C° 0 mm 2 mps 681 mmHg 28%
    17:00 +25°C° 0 mm 2 mps 681 mmHg 31%
    18:00 +24°C° 0 mm 2 mps 681 mmHg 37%
    19:00 +21°C° 0 mm 2 mps 681 mmHg 43%
    20:00 +20°C° 0 mm 1 mps 682 mmHg 48%
    21:00 +19°C° 0 mm 1 mps 682 mmHg 54%
    22:00 +19°C° 0 mm 1 mps 682 mmHg 59%
    23:00 +18°C° 0 mm 1 mps 682 mmHg 64%
    Show more